Home > Weather > Osaka > Past weeks

Flag for Japan Weather for the Past 2 Weeks in Osaka, Japan

Now
36 °F

Passing clouds.


Feels Like: 36 °F
Forecast: 30 / 58 °F
Wind: 2 mph from North

Location: Osaka International Airport

Current Time: Feb 12, 2016 at 6:50:06 AM

Latest Report: Feb 12, 2016 at 6:00 AM


Visibility: N/A

Pressure: 30.42 "Hg

Humidity: 75%

Dew point: 28 °F

Location of OsakaLocation

Historic Weather in Osaka — Graph

°F

Osaka Temperature Yesterday

Maximum temperature yesterday: 55 °F (at 3:00 PM)
Minimum temperature yesterday: 32 °F (at 5:00 AM)
Average temperature yesterday: 45 °F

High & Low Weather Summary for the Past Weeks

 TemperatureHumidityPressure
High55 °F (Feb 11, 3:00 PM)100% (Jan 29, 6:00 AM)30.45 "Hg (Jan 29, 6:00 AM)
Low28 °F (Feb 4, 6:00 AM)20% (Feb 8, 2:00 PM)29.89 "Hg (Feb 9, 7:00 AM)
Average44 °F56%30.14 "Hg
* Reported Jan 28 5:00 AM — Feb 12 5:00 AM, Osaka, Weather by CustomWeather, © 2016

Note: Actual official high and low records may vary slightly from our data, if they occured in-between our weather recording intervals... More about our weather records

Advertising

Osaka Weather History for the Previous 24 Hours

 ConditionsComfort  
Time TempWeatherWind HumidityBarometerVisibility
5:00 AM
Fri, Feb 12
36 °FClear.3 mph70%30.42 "Hg10 mi
8:00 PM
Thu, Feb 11
48 °FClear.7 mph43%30.42 "Hg10 mi
7:00 PM48 °FPassing clouds.5 mph43%30.39 "HgN/A
6:00 PM50 °FClear.3 mph40%30.39 "Hg10 mi
5:00 PM54 °FSunny.2 mph30%30.36 "Hg10 mi
4:00 PM54 °FPassing clouds.3 mph30%30.36 "HgN/A
3:00 PM55 °FPassing clouds.3 mph28%30.36 "HgN/A
2:00 PM52 °FSunny.2 mph32%30.36 "Hg10 mi
1:00 PM50 °FSunny.3 mph35%30.39 "Hg10 mi
12:00 PM48 °FSunny.3 mph40%30.42 "Hg10 mi
11:00 AM46 °FPassing clouds.3 mph43%30.42 "HgN/A
10:00 AM43 °FSunny.1 mph49%30.45 "Hg10 mi
9:00 AM39 °FSunny.1 mph61%30.45 "Hg10 mi
8:00 AM36 °FSunny.5 mph70%30.45 "Hg10 mi
7:00 AM32 °FSunny.5 mph75%30.42 "Hg10 mi
6:00 AM32 °FClear.5 mph75%30.42 "Hg10 mi
Weather by CustomWeather, © 2016

See weather overviewHow to use our weather pages